www.pogodaiklimat.ru
ПОГОДА в Андовере
Время
и дата
05:54 07.02
06:54 07.02
07:54 07.02
08:54 07.02
09:54 07.02
10:54 07.02
11:54 07.02
12:54 07.02
13:54 07.02
14:54 07.02
15:54 07.02
16:54 07.02
17:54 07.02
18:54 07.02
19:54 07.02
20:54 07.02
21:54 07.02
22:54 07.02
00:54 08.02
01:54 08.02
02:54 08.02
03:54 08.02
04:54 08.02
05:54 08.02
06:54 08.02
07:54 08.02
08:54 08.02
09:54 08.02
10:55 08.02
11:54 08.02
12:54 08.02
13:54 08.02
14:54 08.02
15:54 08.02
16:54 08.02
17:54 08.02
18:54 08.02
19:54 08.02
20:54 08.02
21:54 08.02
22:54 08.02
23:54 08.02
00:54 09.02
01:54 09.02
02:54 09.02
03:54 09.02
04:54 09.02
05:54 09.02
Ветер
(напр.,м/с)
Видим. Явления Облачность Т
(С)
Тd
(С)
f
(%)
Тe
(С)
Тes
(С)
Комфортность P
(гПа)
Po
(гПа)
Тmin
(С)
Tmax
(С)
R
(мм)
R24
(мм)
S
(см)
штиль 0 н/о н/о -4.4 -8.3 74 -5 -5 1028.1 1005.5
СВ 2 н/о н/о -4.4 -9.4 68 -8 -8 1028.4 1005.5 -5.0 -2.2
штиль 0 н/о н/о -4.4 -8.9 71 -5 -5 1029.2 1006.5
штиль 0 н/о н/о -2.2 -8.3 63 -3 -3 1029.0 1006.5
СВ 2 н/о н/о -0.6 -7.8 58 -4 -4 1028.1 1005.5
ЮВ 3 н/о н/о +3.3 -8.9 40 0 0 1028.1 1005.5
Ю 3 н/о н/о +3.9 -8.9 39 +1 +1 1027.0 1004.5
Ю 4 н/о н/о +3.9 -7.8 42 0 0 1025.5 1002.8 -5.6 +5.0
Ю 3 н/о н/о +4.4 -6.7 44 +2 +2 1023.8 1001.2
нст 3 н/о н/о +4.4 -6.1 46 +2 +2 1023.5 1000.8
Ю 3 н/о н/о +5.0 -5.6 46 +2 +2 1023.0 1000.5
нст 2 н/о н/о +5.0 -5.0 48 +3 +3 1021.9 999.5
Ю 2 н/о н/о +3.9 -4.4 55 +2 +2 1022.1 999.5
Ю 2 н/о н/о +5.0 -3.9 53 +3 +3 1021.3 998.8 +3.9 +5.6
ЮЗ 2 н/о н/о +5.0 -3.3 55 +3 +3 1021.4 998.8
Ю 2 н/о н/о +4.4 -2.2 62 +2 +2 1022.1 999.5
ЮЗ 2 н/о н/о +2.8 +0.6 85 0 0 1021.2 998.8 0.8
штиль 0 н/о н/о +2.2 +0.6 89 +1 +1 1020.5 998.2
штиль 0 н/о н/о +1.1 -0.6 88 0 0 1019.3 997.2 +1.1 +5.0 0.8
штиль 0 н/о н/о 0.0 -1.7 88 -1 -1 1019.4 997.2
штиль 0 н/о н/о +0.6 -1.7 85 -1 -1 1019.0 996.9
Ю 2 н/о н/о -0.6 -2.2 89 -4 -4 1019.2 996.9
штиль 0 н/о н/о -0.6 -2.8 85 -2 -2 1020.1 997.8
штиль 0 н/о н/о -1.1 -3.3 85 -2 -2 1020.7 998.5
штиль 0 н/о н/о -1.1 -2.8 88 -2 -2 1021.1 998.8 -1.7 +1.1 0.8
штиль 0 н/о н/о -0.6 -2.8 85 -2 -2 1022.1 999.8
штиль 0 н/о н/о +4.4 +1.7 83 +3 +3 1022.6 1000.5
С 4 н/о н/о +8.9 -1.1 49 +6 +6 1023.3 1001.2
СЗ 4 н/о н/о +8.9 -2.2 46 +6 +6 1024.1 1001.8
нст 2 н/о н/о +10.0 -3.3 39 +9 +9 1001.2
нст 2 н/о н/о +10.0 -3.3 39 +9 +9 1023.0 1000.8 -1.7 +11.1
нст 3 н/о н/о +11.7 -3.9 33 +11 +11 1022.5 1000.5
нст 3 н/о н/о +12.2 -4.4 31 +11 +11 1023.1 1001.2
нст 2 н/о н/о +12.2 -5.0 30 +12 +12 1023.8 1001.8
нст 2 н/о н/о +10.6 -4.4 35 +10 +10 1024.6 1002.5
штиль 0 н/о н/о +6.1 -4.4 47 +6 +6 1025.4 1002.8
штиль 0 н/о н/о +2.8 -2.2 70 +2 +2 1026.0 1003.5 +2.8 +12.8
штиль 0 н/о н/о +0.6 -3.3 75 0 0 1026.4 1003.8
штиль 0 н/о н/о -0.6 -3.9 78 -2 -2 1026.6 1004.1
Ю 2 н/о н/о 0.0 -3.3 78 -3 -3 1027.1 1004.8
штиль 0 н/о н/о -0.6 -3.9 78 -2 -2 1026.8 1004.5
штиль 0 н/о н/о -1.7 -4.4 82 -3 -3 1026.9 1004.5
штиль 0 н/о н/о -1.7 -4.4 82 -3 -3 1026.6 1004.1 -2.2 +2.8
штиль 0 н/о н/о -2.2 -5.0 81 -3 -3 1026.2 1003.8
штиль 0 н/о н/о -2.2 -5.0 81 -3 -3 1025.7 1003.5
штиль 0 н/о н/о -3.3 -5.6 84 -4 -4 1025.6 1003.2
штиль 0 н/о н/о -3.3 -5.6 84 -4 -4 1025.6 1003.2
штиль 0 н/о н/о -1.7 -4.4 82 -3 -3 1026.3 1003.8
Местоположение метеостанции Aeroflex-Andover Airport: широта 41.0093 долгота -74.7363 высота над уровнем моря 178 м.
В архиве по умолчанию представлена погода в Андовере за последние 1-2 суток. Обновление информации о фактической погоде в базе происходит ежечасно! Архивные данные за месяц целиком и за предыдущие месяцы Вы можете получить, выбрав интересующий диапазон дат из раскрывающегося списка и нажав кнопку "Ввод!".
Внимание! Архив погоды МЕТАР в базе сайта по станциям, не включенным в климатический монитор, хранится не более 60 дней. Нет смысла пытаться выбрать более раннюю дату.
*Определитесь, кто Вы:
Внимание! Время в таблицах - местное (без учета летнего времени). Для получения всемирного времени необходимо вычесть поправку, которая равна -5 ч.
Смотрите также архив погоды в соседних городах и на ближайших метеорологических станциях:
Партнеры нашего сайта:      
Пояснения к столбцам:
  • Ветер - указаны скорость ветра в м/с - средняя за 10 мин, порывы в срок и между сроками (в фигурных скобках) и направление, откуда дует ветер: С - северный,
  • СВ - северо-восточный, В - восточный, ЮВ - юго-восточный, Ю - южный, ЮЗ - юго-западный, З - западный, СЗ - северо-западный.
  • Видимость - горизонтальная дальность видимости в метрах или километрах. При видимости от 1 до 10 км при отсутствии осадков обычно наблюдается дымка, при ухудшении видимости до 1 км и менее - туман. В сухую погоду видимость может ухудшаться дымом, пылью или мглою.
  • Явления - указаны атмосферные явления, наблюдавшиеся в срок или в последний час перед сроком; фигурными скобками обозначены явления, наблюдавшиеся между сроками (за 1-3 часа до срока); квадратными скобками обозначены град или гололедные отложения с указанием их диаметра в мм.
  • Облачность - указаны через наклонную черту общая и нижняя облачность в баллах и высота нижней границы облаков в метрах; квадратными скобками обозначены формы облаков: Ci - перистые, Cs - перисто-слоистые, Cc - перисто-кучевые, Ac - высококучевые, As - высокослоистые, Sc - слоисто-кучевые, Ns - слоисто-дождевые, Cu - кучевые, Cb - кучево-дождевые. Подробнее классификацию облаков см. в Атласе облаков (PDF).
  • T - Температура воздуха - температура, измеренная на высоте 2 м над землей.
  • Td - Температура точки росы - температура, при понижении до которой содержащийся в воздухе водяной пар достигнет насыщения.
  • f - Относительная влажность воздуха - влажноcть воздуха, измеренная на высоте 2 м над землей.
  • Te - Эффективная температура - температура, которую ощущает одетый по сезону человек в тени. Характеристика душности погоды. При расчете учитывается влияние влажности воздуха и скорости ветра на теплоощущения человека.
  • Tes - Эффективная температура на солнце - температура, которую ощущает человек, с поправкой на солнечный нагрев. Характеристика знойности погоды. Зависит от высоты солнца над горизонтом, облачности и скорости ветра. Ночью, в пасмурную погоду, а также при ветре 12 м/с и более поправка равна нулю.
  • P - Атмосферное давление - приведенное к уровню моря атмосферное давление.
  • Po - Атмосферное давление - измеренное на уровне метеостанции атмосферное давление.
  • Tmin - Минимальная температура - минимум температуры воздуха на высоте 2 м над землей.
  • Tmax - Максимальная температура - максимум температуры воздуха на высоте 2 м над землей.
  • R - Количество осадков - Количество выпавших осадков за период времени, мм. При наведении курсора мыши на число - период времени, за который выпало указанное количество осадков.
  • R24 - Количество осадков - Количество выпавших осадков за 24 часа, мм.
  • S - Снежный покров - Высота снежного покрова, см. При наведении курсора мыши на число - состояние снежного покрова и степень покрытия местности в баллах.